PDA6014 UKBB-LYTV

Flight info

Callsign PDA6014
Flight time N/A
Altitude 32000
Route KAFEL N164 BAMUD/N0455F320 DCT VAMES DCT ELROM DCT BUKAN DCT OLMIP DCT DIRER DCT XENIT DCT NANER DCT MODRA DCT MOJ DCT POD
Aircraft B738/M-SDE2E3FGHIRWXY/LB1

Departure

Time 2026-04-29 11:25
Airport Boryspil International Airport (UKBB)

Arrival

Time N/A
Airport Tivat Airport (LYTV)
Time Latitude Longitude Altitude Speed Heading
2026-04-29 10:48 50.33417 30.89591 417 ft 0 kts 184°
2026-04-29 11:16 50.33414 30.89591 416 ft 0 kts 185°
2026-04-29 11:16 50.33408 30.89589 416 ft 0 kts 190°
2026-04-29 11:18 50.33404 30.89588 416 ft 2 kts 190°
2026-04-29 11:18 50.33360 30.89589 415 ft 8 kts 155°
2026-04-29 11:19 50.33339 30.89653 417 ft 5 kts 92°
2026-04-29 11:19 50.33337 30.89721 418 ft 9 kts 93°
2026-04-29 11:19 50.33333 30.89861 419 ft 17 kts 92°
2026-04-29 11:19 50.33326 30.90072 417 ft 8 kts 92°
2026-04-29 11:20 50.33326 30.90084 417 ft 2 kts 93°
2026-04-29 11:20 50.33310 30.90123 417 ft 6 kts 155°
2026-04-29 11:20 50.33252 30.90119 417 ft 9 kts 186°
2026-04-29 11:20 50.33153 30.90110 414 ft 18 kts 182°
2026-04-29 11:21 50.33013 30.90101 410 ft 20 kts 183°
2026-04-29 11:21 50.32864 30.90089 408 ft 21 kts 183°
2026-04-29 11:21 50.32721 30.90078 409 ft 20 kts 183°
2026-04-29 11:21 50.32586 30.90069 411 ft 18 kts 181°
2026-04-29 11:22 50.32487 30.90089 411 ft 6 kts 146°
2026-04-29 11:22 50.32484 30.90092 411 ft 0 kts 143°
2026-04-29 11:22 50.32471 30.90110 411 ft 6 kts 135°
2026-04-29 11:23 50.32443 30.90191 412 ft 9 kts 100°
2026-04-29 11:23 50.32454 30.90288 412 ft 8 kts 62°
2026-04-29 11:23 50.32504 30.90359 411 ft 11 kts 28°
2026-04-29 11:23 50.32585 30.90396 410 ft 12 kts
2026-04-29 11:24 50.32630 30.90396 409 ft 0 kts
2026-04-29 11:24 50.32635 30.90396 409 ft 6 kts
2026-04-29 11:24 50.32864 30.90410 409 ft 68 kts
2026-04-29 11:25 50.33558 30.90463 416 ft 131 kts
2026-04-29 11:25 50.34645 30.90542 526 ft 171 kts
2026-04-29 11:25 50.35794 30.90621 1321 ft 167 kts
2026-04-29 11:25 50.36951 30.90693 2027 ft 171 kts
2026-04-29 11:26 50.39479 30.90967 2913 ft 199 kts
2026-04-29 11:26 50.40905 30.91072 3466 ft 209 kts
2026-04-29 11:26 50.42424 30.91127 3858 ft 229 kts 359°
2026-04-29 11:27 50.44031 30.91196 4429 ft 240 kts
2026-04-29 11:27 50.45742 30.91319 4998 ft 251 kts
2026-04-29 11:27 50.47513 30.91449 5714 ft 257 kts
2026-04-29 11:27 50.49276 30.91567 6467 ft 260 kts
2026-04-29 11:28 50.51085 30.91655 7222 ft 263 kts 356°
2026-04-29 11:28 50.52840 30.90988 7965 ft 263 kts 330°
2026-04-29 11:28 50.54233 30.89187 8756 ft 263 kts 309°
2026-04-29 11:28 50.55138 30.86700 9444 ft 268 kts 288°
2026-04-29 11:29 50.55429 30.83815 10208 ft 271 kts 275°
2026-04-29 11:29 50.55498 30.80757 10625 ft 286 kts 273°
2026-04-29 11:29 50.55553 30.77602 11035 ft 301 kts 274°
2026-04-29 11:29 50.55644 30.74210 11411 ft 316 kts 275°
2026-04-29 11:30 50.55768 30.70724 11817 ft 330 kts 275°
2026-04-29 11:30 50.55911 30.67059 12374 ft 340 kts 275°
2026-04-29 11:30 50.56058 30.63352 13103 ft 344 kts 275°
2026-04-29 11:30 50.56205 30.59591 13843 ft 349 kts 275°
2026-04-29 11:31 50.56351 30.55788 14614 ft 352 kts 276°
2026-04-29 11:31 50.56499 30.51946 15401 ft 355 kts 276°
2026-04-29 11:31 50.56649 30.48050 16091 ft 361 kts 276°
2026-04-29 11:31 50.56799 30.44153 16863 ft 364 kts 276°
2026-04-29 11:32 50.56952 30.40167 17600 ft 367 kts 276°
2026-04-29 11:32 50.57104 30.36146 18369 ft 370 kts 276°
2026-04-29 11:32 50.57259 30.32080 18919 ft 378 kts 276°
2026-04-29 11:32 50.57412 30.27969 19733 ft 378 kts 276°
2026-04-29 11:33 50.57565 30.23845 20271 ft 384 kts 276°
2026-04-29 11:33 50.57721 30.19608 20873 ft 389 kts 276°
2026-04-29 11:33 50.57874 30.15408 21511 ft 392 kts 276°
2026-04-29 11:33 50.58032 30.11051 21924 ft 401 kts 276°
2026-04-29 11:34 50.58190 30.06636 22427 ft 407 kts 276°
2026-04-29 11:34 50.58344 30.02251 23108 ft 407 kts 276°
2026-04-29 11:34 50.58498 29.97805 23679 ft 410 kts 276°
2026-04-29 11:34 50.58656 29.93223 24098 ft 417 kts 276°
2026-04-29 11:35 50.58809 29.88733 24730 ft 417 kts 277°
2026-04-29 11:35 50.58964 29.84099 25203 ft 421 kts 276°
2026-04-29 11:35 50.59120 29.79456 25464 ft 430 kts 276°
2026-04-29 11:35 50.59274 29.74788 26129 ft 427 kts 276°
2026-04-29 11:36 50.59425 29.70111 26571 ft 429 kts 276°
2026-04-29 11:36 50.59575 29.65409 27015 ft 430 kts 276°
2026-04-29 11:36 50.59723 29.60709 27274 ft 436 kts 276°
2026-04-29 11:36 50.59870 29.55962 27735 ft 435 kts 275°
2026-04-29 11:37 50.60017 29.51155 28201 ft 434 kts 275°
2026-04-29 11:37 50.60162 29.46400 28409 ft 440 kts 275°
2026-04-29 11:37 50.60304 29.41635 28831 ft 440 kts 275°
2026-04-29 11:37 50.60434 29.36805 29112 ft 444 kts 274°
2026-04-29 11:38 50.60390 29.31987 29556 ft 442 kts 268°
2026-04-29 11:38 50.60014 29.27205 30043 ft 440 kts 261°
2026-04-29 11:38 50.59262 29.22579 30484 ft 439 kts 255°
2026-04-29 11:38 50.58271 29.17989 30798 ft 441 kts 252°
2026-04-29 11:39 50.57188 29.13551 31088 ft 442 kts 251°
2026-04-29 11:39 50.56033 29.09063 31405 ft 443 kts 250°
2026-04-29 11:39 50.54854 29.04573 31719 ft 443 kts 250°
2026-04-29 11:39 50.53692 29.00167 32076 ft 442 kts 250°
2026-04-29 11:40 50.52509 28.95672 32207 ft 445 kts 250°
2026-04-29 11:40 50.51341 28.91213 32223 ft 443 kts 250°
2026-04-29 11:40 50.49011 28.82277 32224 ft 441 kts 250°
2026-04-29 11:41 50.46684 28.73372 32222 ft 441 kts 249°
2026-04-29 11:41 50.43902 28.64854 32221 ft 442 kts 242°
2026-04-29 11:42 50.40622 28.56698 32221 ft 444 kts 240°
2026-04-29 11:42 50.37222 28.48612 32220 ft 445 kts 240°
2026-04-29 11:43 50.33837 28.40575 32220 ft 442 kts 240°
2026-04-29 11:43 50.30492 28.32603 32219 ft 443 kts 239°
2026-04-29 11:44 50.27107 28.24511 32219 ft 443 kts 239°
2026-04-29 11:44 50.23737 28.16464 32221 ft 442 kts 239°
2026-04-29 11:45 50.20389 28.08484 32220 ft 443 kts 240°
2026-04-29 11:45 50.17041 28.00528 32219 ft 441 kts 240°
2026-04-29 11:46 50.13680 27.92563 32219 ft 441 kts 240°
2026-04-29 11:46 50.10318 27.84615 32223 ft 441 kts 240°
2026-04-29 11:47 50.06943 27.76667 32227 ft 439 kts 240°
2026-04-29 11:47 50.03579 27.68768 32227 ft 439 kts 240°
2026-04-29 11:48 50.00232 27.60932 32228 ft 438 kts 240°
2026-04-29 11:48 49.96862 27.53068 32228 ft 439 kts 239°
2026-04-29 11:49 49.93220 27.45428 32237 ft 441 kts 234°
2026-04-29 11:49 49.89156 27.38394 32223 ft 441 kts 231°
2026-04-29 11:50 49.84942 27.31386 32229 ft 441 kts 230°
2026-04-29 11:50 49.80804 27.24489 32238 ft 439 kts 231°
2026-04-29 11:51 49.76671 27.17552 32227 ft 439 kts 231°
2026-04-29 11:51 49.72545 27.10603 32226 ft 439 kts 231°
2026-04-29 11:52 49.68436 27.03686 32217 ft 438 kts 232°
2026-04-29 11:52 49.64337 26.96799 32210 ft 438 kts 232°
2026-04-29 11:53 49.60228 26.89908 32208 ft 436 kts 232°
2026-04-29 11:53 49.56123 26.83046 32200 ft 436 kts 232°
2026-04-29 11:54 49.52037 26.76231 32225 ft 437 kts 232°
2026-04-29 11:54 49.47942 26.69425 32211 ft 432 kts 232°
2026-04-29 11:55 49.43862 26.62655 32191 ft 433 kts 232°
2026-04-29 11:55 49.39767 26.55878 32208 ft 433 kts 232°
2026-04-29 11:56 49.35666 26.49116 32213 ft 431 kts 233°
2026-04-29 11:56 49.31606 26.42436 32200 ft 430 kts 233°
2026-04-29 11:57 49.27529 26.35740 32202 ft 430 kts 233°
2026-04-29 11:57 49.23441 26.29047 32225 ft 431 kts 232°
2026-04-29 11:58 49.19365 26.22399 32216 ft 429 kts 233°
2026-04-29 11:58 49.15305 26.15783 32232 ft 430 kts 232°
2026-04-29 11:59 49.11226 26.09157 32207 ft 427 kts 233°
2026-04-29 11:59 49.07177 26.02599 32216 ft 426 kts 233°
2026-04-29 12:00 49.03124 25.96050 32206 ft 423 kts 233°
2026-04-29 12:00 48.99115 25.89591 32197 ft 424 kts 233°
2026-04-29 12:01 48.95056 25.83058 32198 ft 424 kts 233°
2026-04-29 12:01 48.91025 25.76593 32202 ft 423 kts 233°
2026-04-29 12:02 48.86977 25.70119 32205 ft 423 kts 233°
2026-04-29 12:02 48.82933 25.63665 32214 ft 422 kts 233°
2026-04-29 12:03 48.78913 25.57265 32216 ft 421 kts 233°
2026-04-29 12:03 48.74869 25.50844 32218 ft 420 kts 233°
2026-04-29 12:04 48.70846 25.44474 32228 ft 420 kts 233°
2026-04-29 12:04 48.66822 25.38115 32230 ft 420 kts 233°
2026-04-29 12:05 48.62789 25.31760 32216 ft 421 kts 233°
2026-04-29 12:05 48.58746 25.25401 32228 ft 420 kts 233°
2026-04-29 12:06 48.54712 25.19081 32231 ft 419 kts 233°
2026-04-29 12:06 48.50690 25.12786 32226 ft 419 kts 233°
2026-04-29 12:07 48.46635 25.06453 32202 ft 422 kts 233°
2026-04-29 12:07 48.42556 25.00105 32195 ft 421 kts 233°
2026-04-29 12:08 48.38501 24.93806 32190 ft 420 kts 233°
2026-04-29 12:08 48.34424 24.87496 32158 ft 420 kts 233°
2026-04-29 12:09 48.30383 24.81255 32115 ft 417 kts 233°
2026-04-29 12:09 48.26332 24.75006 32100 ft 419 kts 234°
2026-04-29 12:10 48.22297 24.68800 32081 ft 418 kts 233°
2026-04-29 12:10 48.18235 24.62569 32079 ft 416 kts 234°
2026-04-29 12:11 48.14202 24.56397 32078 ft 418 kts 234°
2026-04-29 12:11 48.10151 24.50209 32074 ft 417 kts 234°
2026-04-29 12:12 48.06117 24.44067 32069 ft 415 kts 234°
2026-04-29 12:12 48.02069 24.37912 32065 ft 416 kts 234°
2026-04-29 12:13 47.98016 24.31765 32098 ft 417 kts 233°
2026-04-29 12:13 47.93977 24.25666 32103 ft 412 kts 234°
2026-04-29 12:14 47.89899 24.19628 32099 ft 419 kts 230°
2026-04-29 12:14 47.85357 24.14130 32100 ft 422 kts 226°
2026-04-29 12:15 47.80665 24.08837 32114 ft 422 kts 226°
2026-04-29 12:15 47.76010 24.03564 32101 ft 424 kts 226°
2026-04-29 12:16 47.71348 23.98220 32097 ft 422 kts 227°
2026-04-29 12:16 47.66719 23.92888 32110 ft 423 kts 227°
2026-04-29 12:17 47.62109 23.87574 32105 ft 422 kts 227°
2026-04-29 12:17 47.57496 23.82262 32113 ft 420 kts 227°
2026-04-29 12:18 47.52869 23.76940 32122 ft 422 kts 227°
2026-04-29 12:18 47.48245 23.71642 32122 ft 422 kts 227°
2026-04-29 12:19 47.43621 23.66354 32115 ft 421 kts 227°
2026-04-29 12:19 47.38982 23.61058 32122 ft 421 kts 227°
2026-04-29 12:20 47.34352 23.55829 32117 ft 423 kts 225°
2026-04-29 12:20 47.29413 23.51134 32121 ft 428 kts 221°
2026-04-29 12:21 47.24263 23.46702 32119 ft 430 kts 220°
2026-04-29 12:21 47.19107 23.42281 32124 ft 429 kts 220°
2026-04-29 12:22 47.13947 23.37810 32117 ft 429 kts 221°
2026-04-29 12:22 47.08825 23.33338 32123 ft 428 kts 220°
2026-04-29 12:23 47.03722 23.28875 32123 ft 431 kts 220°
2026-04-29 12:23 46.98586 23.24393 32122 ft 427 kts 220°
2026-04-29 12:24 46.93465 23.19925 32115 ft 430 kts 220°
2026-04-29 12:24 46.88354 23.15482 32107 ft 430 kts 220°
2026-04-29 12:25 46.83223 23.11028 32103 ft 430 kts 220°
2026-04-29 12:26 46.75526 23.04367 32100 ft 432 kts 220°
2026-04-29 12:26 46.70184 23.00219 32093 ft 436 kts 215°
2026-04-29 12:27 46.64652 22.96567 32084 ft 439 kts 214°
2026-04-29 12:27 46.59093 22.92992 32075 ft 442 kts 214°
2026-04-29 12:28 46.53524 22.89241 32068 ft 434 kts 218°
2026-04-29 12:28 46.48549 22.84588 32071 ft 426 kts 226°
2026-04-29 12:29 46.43892 22.79490 32082 ft 420 kts 228°
2026-04-29 12:29 46.39220 22.74279 32096 ft 422 kts 227°
2026-04-29 12:30 46.34536 22.69132 32104 ft 424 kts 227°
2026-04-29 12:30 46.29843 22.64048 32106 ft 424 kts 227°
2026-04-29 12:31 46.25143 22.58993 32106 ft 425 kts 227°
2026-04-29 12:31 46.20400 22.53915 32107 ft 425 kts 227°
2026-04-29 12:32 46.15655 22.48847 32111 ft 426 kts 227°
2026-04-29 12:32 46.10915 22.43800 32116 ft 428 kts 227°
2026-04-29 12:33 46.06141 22.38734 32116 ft 426 kts 227°
2026-04-29 12:33 46.01318 22.33808 32121 ft 430 kts 224°
2026-04-29 12:34 45.96271 22.29136 32122 ft 435 kts 222°
2026-04-29 12:34 45.91202 22.24561 32119 ft 430 kts 222°
2026-04-29 12:35 45.86136 22.19951 32121 ft 433 kts 223°
2026-04-29 12:35 45.81058 22.15306 32117 ft 434 kts 223°
2026-04-29 12:36 45.76021 22.10694 32122 ft 432 kts 223°
2026-04-29 12:36 45.70977 22.06075 32119 ft 431 kts 223°
2026-04-29 12:37 45.65926 22.01451 32121 ft 432 kts 223°
2026-04-29 12:37 45.60892 21.96855 32119 ft 430 kts 223°
2026-04-29 12:38 45.55840 21.92246 32122 ft 431 kts 223°
2026-04-29 12:38 45.50834 21.87688 32119 ft 430 kts 222°
2026-04-29 12:39 45.45798 21.83119 32115 ft 428 kts 222°
2026-04-29 12:39 45.40781 21.78579 32117 ft 429 kts 222°
2026-04-29 12:40 45.35767 21.74047 32121 ft 430 kts 222°
2026-04-29 12:40 45.30719 21.69494 32124 ft 430 kts 222°
2026-04-29 12:41 45.25679 21.64958 32128 ft 430 kts 222°
2026-04-29 12:41 45.20665 21.60463 32121 ft 428 kts 222°
2026-04-29 12:42 45.15628 21.55953 32123 ft 427 kts 221°
2026-04-29 12:42 45.10593 21.51454 32123 ft 429 kts 221°
2026-04-29 12:43 45.05566 21.46971 32128 ft 429 kts 221°
2026-04-29 12:43 45.00525 21.42488 32121 ft 429 kts 221°
2026-04-29 12:44 44.95515 21.38006 32121 ft 427 kts 222°
2026-04-29 12:44 44.90518 21.33439 32124 ft 430 kts 221°
2026-04-29 12:45 44.85521 21.28858 32123 ft 428 kts 221°
2026-04-29 12:45 44.80534 21.24307 32129 ft 430 kts 221°
2026-04-29 12:46 44.75496 21.19724 32129 ft 430 kts 221°
2026-04-29 12:46 44.70493 21.15185 32130 ft 431 kts 221°
2026-04-29 12:47 44.65453 21.10630 32134 ft 430 kts 221°
2026-04-29 12:47 44.60437 21.06107 32127 ft 432 kts 221°
2026-04-29 12:48 44.55401 21.01574 32134 ft 431 kts 221°
2026-04-29 12:48 44.50349 20.97037 32132 ft 432 kts 221°
2026-04-29 12:49 44.45348 20.92556 32134 ft 433 kts 221°
2026-04-29 12:49 44.40290 20.88035 32131 ft 432 kts 221°
2026-04-29 12:50 44.35214 20.83506 32124 ft 432 kts 220°
2026-04-29 12:50 44.30119 20.79017 32125 ft 434 kts 220°
2026-04-29 12:51 44.24984 20.74702 32123 ft 435 kts 219°
2026-04-29 12:51 44.19790 20.70411 32127 ft 435 kts 219°
2026-04-29 12:52 44.14580 20.66105 32126 ft 435 kts 219°
2026-04-29 12:52 44.09409 20.61820 32127 ft 436 kts 219°
2026-04-29 12:53 44.04234 20.57532 32126 ft 436 kts 219°
2026-04-29 12:53 43.99065 20.53254 32130 ft 435 kts 218°
2026-04-29 12:54 43.93917 20.48998 32128 ft 435 kts 218°
2026-04-29 12:54 43.88893 20.44770 32129 ft 433 kts 221°
2026-04-29 12:55 43.84008 20.40040 32130 ft 430 kts 224°
2026-04-29 12:55 43.79186 20.35150 32124 ft 430 kts 224°
2026-04-29 12:56 43.74337 20.30263 32119 ft 433 kts 223°
2026-04-29 12:56 43.69496 20.25450 32109 ft 434 kts 222°
2026-04-29 12:57 43.64595 20.20628 32112 ft 432 kts 222°